EWG7UJ EDXW-EDDL

Flight info

Callsign EWG7UJ
Flight time 0h 54m
Altitude 32000
Route OLDIP1B OLDIP DCT BADOS DCT OMWEG Y348 ELSOB DCT KEGAB DCT DENOL T851 HALME HALME1A
Aircraft A319/M-SDFGIJ1RWXY/HB1

Departure

Time 2026-05-04 17:45
Airport Westerland Sylt Airport (EDXW)

Arrival

Time 2026-05-04 18:40
Airport Düsseldorf Airport (EDDL)
Time Latitude Longitude Altitude Speed Heading
2026-05-04 17:07 54.91385 8.33118 29 ft 0 kts 270°
2026-05-04 17:29 54.91385 8.33134 29 ft 4 kts 266°
2026-05-04 17:30 54.91424 8.33233 29 ft 4 kts 160°
2026-05-04 17:31 54.91430 8.33229 29 ft 0 kts 149°
2026-05-04 17:34 54.91429 8.33230 29 ft 1 kts 149°
2026-05-04 17:34 54.91408 8.33245 29 ft 6 kts 164°
2026-05-04 17:35 54.91230 8.33180 32 ft 8 kts 180°
2026-05-04 17:35 54.91120 8.33180 35 ft 12 kts 180°
2026-05-04 17:35 54.91026 8.33158 34 ft 14 kts 206°
2026-05-04 17:36 54.90954 8.33105 34 ft 9 kts 180°
2026-05-04 17:36 54.90901 8.33156 35 ft 9 kts 151°
2026-05-04 17:36 54.90839 8.33198 34 ft 12 kts 163°
2026-05-04 17:36 54.90752 8.33222 35 ft 13 kts 175°
2026-05-04 17:37 54.90659 8.33234 35 ft 14 kts 176°
2026-05-04 17:37 54.90561 8.33247 34 ft 15 kts 172°
2026-05-04 17:37 54.90461 8.33297 34 ft 16 kts 155°
2026-05-04 17:37 54.90367 8.33404 33 ft 17 kts 137°
2026-05-04 17:38 54.90297 8.33561 33 ft 17 kts 117°
2026-05-04 17:38 54.90260 8.33741 33 ft 15 kts 99°
2026-05-04 17:38 54.90244 8.33926 33 ft 15 kts 98°
2026-05-04 17:38 54.90236 8.34110 33 ft 15 kts 86°
2026-05-04 17:39 54.90270 8.34481 33 ft 16 kts 80°
2026-05-04 17:39 54.90290 8.34675 35 ft 17 kts 80°
2026-05-04 17:39 54.90311 8.34873 36 ft 17 kts 80°
2026-05-04 17:40 54.90324 8.35003 35 ft 6 kts 80°
2026-05-04 17:40 54.90332 8.35052 35 ft 0 kts 61°
2026-05-04 17:41 54.90333 8.35054 35 ft 1 kts 61°
2026-05-04 17:42 54.90346 8.35092 36 ft 7 kts 54°
2026-05-04 17:42 54.90373 8.35156 37 ft 6 kts 54°
2026-05-04 17:42 54.90404 8.35187 37 ft 5 kts 355°
2026-05-04 17:42 54.90423 8.35164 36 ft 0 kts 323°
2026-05-04 17:44 54.90424 8.35163 36 ft 1 kts 323°
2026-05-04 17:44 54.90478 8.35094 37 ft 37 kts 324°
2026-05-04 17:45 54.90915 8.34554 37 ft 114 kts 324°
2026-05-04 17:45 54.91690 8.33587 327 ft 144 kts 324°
2026-05-04 17:45 54.92498 8.32579 1113 ft 143 kts 323°
2026-05-04 17:45 54.93345 8.31521 1635 ft 161 kts 323°
2026-05-04 17:46 54.94313 8.30308 2111 ft 181 kts 322°
2026-05-04 17:46 54.95392 8.28983 2629 ft 196 kts 323°
2026-05-04 17:46 54.96534 8.27597 3301 ft 203 kts 322°
2026-05-04 17:46 54.97694 8.26150 4009 ft 207 kts 319°
2026-05-04 17:47 54.98433 8.24060 4692 ft 208 kts 279°
2026-05-04 17:47 54.98204 8.21595 5388 ft 212 kts 245°
2026-05-04 17:47 54.97330 8.19480 6185 ft 215 kts 234°
2026-05-04 17:47 54.96460 8.17397 7093 ft 212 kts 236°
2026-05-04 17:48 54.95604 8.15302 7902 ft 213 kts 237°
2026-05-04 17:48 54.94603 8.13355 8605 ft 223 kts 215°
2026-05-04 17:48 54.93080 8.12659 9331 ft 237 kts 181°
2026-05-04 17:48 54.91442 8.13644 9742 ft 269 kts 149°
2026-05-04 17:49 54.89899 8.15679 10145 ft 293 kts 144°
2026-05-04 17:49 54.88290 8.18024 10834 ft 302 kts 143°
2026-05-04 17:49 54.86684 8.20426 11667 ft 307 kts 143°
2026-05-04 17:49 54.85075 8.22823 12488 ft 311 kts 143°
2026-05-04 17:50 54.83410 8.25266 13305 ft 315 kts 143°
2026-05-04 17:50 54.81627 8.27575 13813 ft 329 kts 153°
2026-05-04 17:50 54.79576 8.29616 14077 ft 350 kts 151°
2026-05-04 17:50 54.77496 8.31922 14661 ft 358 kts 152°
2026-05-04 17:51 54.75349 8.34155 15358 ft 363 kts 152°
2026-05-04 17:51 54.73229 8.36580 16063 ft 368 kts 148°
2026-05-04 17:51 54.71131 8.39157 16760 ft 372 kts 147°
2026-05-04 17:51 54.69022 8.41785 17485 ft 375 kts 147°
2026-05-04 17:52 54.66885 8.44410 18189 ft 379 kts 148°
2026-05-04 17:52 54.64705 8.47019 18821 ft 382 kts 149°
2026-05-04 17:52 54.62491 8.49610 19445 ft 385 kts 149°
2026-05-04 17:52 54.60248 8.52188 20065 ft 389 kts 150°
2026-05-04 17:53 54.57980 8.54774 20681 ft 392 kts 150°
2026-05-04 17:53 54.55696 8.57369 21290 ft 395 kts 150°
2026-05-04 17:53 54.53391 8.59986 21892 ft 398 kts 150°
2026-05-04 17:53 54.51070 8.62628 22455 ft 402 kts 151°
2026-05-04 17:54 54.48718 8.65310 22870 ft 406 kts 151°
2026-05-04 17:54 54.46362 8.68003 23166 ft 407 kts 151°
2026-05-04 17:54 54.44027 8.70671 23459 ft 410 kts 152°
2026-05-04 17:54 54.41603 8.73428 23896 ft 415 kts 153°
2026-05-04 17:55 54.39180 8.76176 24359 ft 419 kts 153°
2026-05-04 17:55 54.36771 8.78905 24840 ft 421 kts 153°
2026-05-04 17:55 54.34324 8.81675 25331 ft 422 kts 153°
2026-05-04 17:55 54.31868 8.84453 25817 ft 424 kts 154°
2026-05-04 17:56 54.29397 8.87242 26297 ft 426 kts 154°
2026-05-04 17:56 54.26916 8.90042 26761 ft 428 kts 154°
2026-05-04 17:56 54.24429 8.92845 27250 ft 429 kts 154°
2026-05-04 17:56 54.21927 8.95656 27699 ft 431 kts 154°
2026-05-04 17:57 54.19416 8.98476 28169 ft 433 kts 155°
2026-05-04 17:57 54.16893 9.01306 28631 ft 435 kts 155°
2026-05-04 17:57 54.14358 9.04146 29075 ft 436 kts 154°
2026-05-04 17:57 54.11822 9.06986 29569 ft 436 kts 154°
2026-05-04 17:58 54.09284 9.09822 30029 ft 437 kts 155°
2026-05-04 17:58 54.06732 9.12666 30388 ft 439 kts 155°
2026-05-04 17:58 54.04160 9.15520 30703 ft 442 kts 154°
2026-05-04 17:58 54.01573 9.18382 30998 ft 445 kts 155°
2026-05-04 17:59 53.98835 9.20652 31270 ft 432 kts 171°
2026-05-04 17:59 53.95924 9.21532 31528 ft 422 kts 184°
2026-05-04 17:59 53.90442 9.19320 31962 ft 404 kts 207°
2026-05-04 18:00 53.87796 9.17832 31990 ft 396 kts 200°
2026-05-04 18:00 53.82458 9.16343 32006 ft 386 kts 193°
2026-05-04 18:01 53.77137 9.15345 31998 ft 383 kts 193°
2026-05-04 18:01 53.71864 9.14089 31997 ft 382 kts 195°
2026-05-04 18:02 53.64004 9.11876 31970 ft 381 kts 195°
2026-05-04 18:02 53.58800 9.10413 31979 ft 381 kts 195°
2026-05-04 18:03 53.53560 9.08972 31983 ft 381 kts 195°
2026-05-04 18:03 53.48328 9.07548 31987 ft 381 kts 195°
2026-05-04 18:04 53.43095 9.06138 31986 ft 381 kts 195°
2026-05-04 18:05 53.36135 9.04249 31979 ft 380 kts 195°
2026-05-04 18:05 53.30922 9.02839 31987 ft 379 kts 195°
2026-05-04 18:06 53.23116 9.00732 31987 ft 378 kts 195°
2026-05-04 18:06 53.17921 8.99340 31981 ft 378 kts 195°
2026-05-04 18:07 53.12729 8.97954 31979 ft 377 kts 195°
2026-05-04 18:07 53.07537 8.96563 31973 ft 377 kts 195°
2026-05-04 18:08 53.02390 8.95188 31973 ft 377 kts 195°
2026-05-04 18:08 52.97205 8.93808 31972 ft 377 kts 195°
2026-05-04 18:09 52.86858 8.90979 31963 ft 376 kts 195°
2026-05-04 18:10 52.81690 8.89568 31965 ft 376 kts 195°
2026-05-04 18:10 52.76526 8.88161 31963 ft 376 kts 195°
2026-05-04 18:11 52.71358 8.86754 31957 ft 376 kts 195°
2026-05-04 18:11 52.66200 8.85362 31933 ft 376 kts 194°
2026-05-04 18:12 52.61041 8.83967 31943 ft 376 kts 194°
2026-05-04 18:12 52.55913 8.82582 31949 ft 376 kts 194°
2026-05-04 18:13 52.50734 8.81183 31967 ft 384 kts 194°
2026-05-04 18:13 52.45300 8.79706 31970 ft 407 kts 194°
2026-05-04 18:14 52.42488 8.78953 31962 ft 413 kts 193°
2026-05-04 18:14 52.39627 8.78193 31660 ft 415 kts 193°
2026-05-04 18:14 52.36770 8.77440 31385 ft 417 kts 193°
2026-05-04 18:15 52.31246 8.74948 30707 ft 410 kts 212°
2026-05-04 18:15 52.27295 8.68447 30214 ft 409 kts 240°
2026-05-04 18:15 52.25909 8.64361 29961 ft 414 kts 240°
2026-05-04 18:16 52.24520 8.60220 29678 ft 417 kts 240°
2026-05-04 18:16 52.23126 8.56054 29391 ft 419 kts 240°
2026-05-04 18:16 52.21731 8.51901 28588 ft 416 kts 240°
2026-05-04 18:17 52.18921 8.43665 26837 ft 411 kts 239°
2026-05-04 18:17 52.17461 8.39692 26124 ft 406 kts 237°
2026-05-04 18:17 52.14451 8.31975 24671 ft 401 kts 236°
2026-05-04 18:18 52.12947 8.28176 24080 ft 396 kts 236°
2026-05-04 18:18 52.11489 8.24473 23522 ft 392 kts 236°
2026-05-04 18:18 52.10014 8.20689 22847 ft 389 kts 236°
2026-05-04 18:18 52.08597 8.17028 22215 ft 387 kts 237°
2026-05-04 18:19 52.05737 8.09626 20796 ft 387 kts 237°
2026-05-04 18:19 52.04309 8.05929 20173 ft 385 kts 237°
2026-05-04 18:19 52.02886 8.02255 19590 ft 383 kts 237°
2026-05-04 18:20 52.01466 7.98607 19037 ft 381 kts 237°
2026-05-04 18:20 52.00051 7.94979 18464 ft 380 kts 236°
2026-05-04 18:20 51.98644 7.91378 17991 ft 375 kts 236°
2026-05-04 18:20 51.97252 7.87822 17468 ft 371 kts 236°
2026-05-04 18:21 51.95871 7.84303 16915 ft 368 kts 236°
2026-05-04 18:21 51.94512 7.80839 16683 ft 358 kts 236°
2026-05-04 18:21 51.93196 7.77485 16426 ft 348 kts 236°
2026-05-04 18:21 51.91902 7.74197 15985 ft 344 kts 236°
2026-05-04 18:22 51.90622 7.70945 15510 ft 342 kts 236°
2026-05-04 18:22 51.89349 7.67703 15029 ft 340 kts 237°
2026-05-04 18:22 51.88086 7.64482 14554 ft 338 kts 237°
2026-05-04 18:22 51.86829 7.61268 14116 ft 337 kts 237°
2026-05-04 18:23 51.85572 7.58056 13962 ft 338 kts 237°
2026-05-04 18:23 51.84330 7.54893 13972 ft 325 kts 237°
2026-05-04 18:23 51.83146 7.51881 13986 ft 310 kts 237°
2026-05-04 18:23 51.81998 7.48969 13987 ft 305 kts 237°
2026-05-04 18:24 51.80863 7.46090 13986 ft 304 kts 236°
2026-05-04 18:24 51.79734 7.43230 13984 ft 300 kts 236°
2026-05-04 18:24 51.78611 7.40391 13988 ft 300 kts 236°
2026-05-04 18:24 51.77487 7.37560 13980 ft 299 kts 236°
2026-05-04 18:25 51.76363 7.34756 13704 ft 297 kts 236°
2026-05-04 18:25 51.75243 7.31968 13322 ft 295 kts 236°
2026-05-04 18:25 51.74125 7.29195 12963 ft 294 kts 236°
2026-05-04 18:25 51.73023 7.26478 12496 ft 294 kts 236°
2026-05-04 18:26 51.71872 7.23680 12053 ft 295 kts 236°
2026-05-04 18:26 51.70743 7.20944 11474 ft 292 kts 235°
2026-05-04 18:26 51.69635 7.18258 10896 ft 290 kts 236°
2026-05-04 18:26 51.68520 7.15562 10314 ft 288 kts 235°
2026-05-04 18:27 51.67416 7.12887 9740 ft 286 kts 235°
2026-05-04 18:27 51.66315 7.10236 9129 ft 283 kts 235°
2026-05-04 18:27 51.65235 7.07637 8761 ft 271 kts 235°
2026-05-04 18:27 51.64227 7.05204 8603 ft 253 kts 235°
2026-05-04 18:28 51.63266 7.02882 8224 ft 246 kts 235°
2026-05-04 18:28 51.62322 7.00597 7817 ft 244 kts 235°
2026-05-04 18:28 51.61390 6.98331 7481 ft 242 kts 235°
2026-05-04 18:28 51.60467 6.96082 7199 ft 240 kts 235°
2026-05-04 18:29 51.59559 6.93848 7010 ft 235 kts 235°
2026-05-04 18:29 51.58668 6.91650 6979 ft 235 kts 233°
2026-05-04 18:29 51.57463 6.89942 6985 ft 233 kts 204°
2026-05-04 18:29 51.55885 6.89547 6992 ft 233 kts 172°
2026-05-04 18:30 51.53494 6.92797 6992 ft 243 kts 109°
2026-05-04 18:30 51.53260 6.95503 6912 ft 249 kts 95°
2026-05-04 18:30 51.53195 6.98268 6661 ft 247 kts 94°
2026-05-04 18:31 51.53155 7.01023 6426 ft 245 kts 93°
2026-05-04 18:31 51.53122 7.03759 6165 ft 245 kts 93°
2026-05-04 18:31 51.53092 7.06486 6023 ft 244 kts 93°
2026-05-04 18:31 51.53063 7.09204 6019 ft 244 kts 93°
2026-05-04 18:32 51.53036 7.11931 6017 ft 244 kts 94°
2026-05-04 18:32 51.53007 7.14658 6019 ft 244 kts 95°
2026-05-04 18:32 51.52588 7.17234 6015 ft 238 kts 124°
2026-05-04 18:32 51.51423 7.19020 6017 ft 232 kts 156°
2026-05-04 18:33 51.49869 7.19522 5862 ft 229 kts 187°
2026-05-04 18:33 51.48352 7.18822 5615 ft 227 kts 202°
2026-05-04 18:33 51.46894 7.17854 5357 ft 226 kts 203°
2026-05-04 18:33 51.45450 7.16863 5102 ft 226 kts 203°
2026-05-04 18:34 51.44113 7.15645 4854 ft 225 kts 223°
2026-05-04 18:34 51.43346 7.13492 4596 ft 227 kts 255°
2026-05-04 18:34 51.43122 7.10967 4336 ft 229 kts 263°
2026-05-04 18:34 51.42984 7.08437 4083 ft 226 kts 263°
2026-05-04 18:35 51.42796 7.05961 3826 ft 220 kts 252°
2026-05-04 18:35 51.42099 7.03846 3573 ft 213 kts 231°
2026-05-04 18:35 51.41208 7.01966 3327 ft 211 kts 231°
2026-05-04 18:35 51.40328 7.00100 3091 ft 208 kts 231°
2026-05-04 18:36 51.39486 6.98316 3018 ft 194 kts 231°
2026-05-04 18:36 51.38681 6.96611 2989 ft 189 kts 231°
2026-05-04 18:36 51.37908 6.94976 2818 ft 182 kts 231°
2026-05-04 18:36 51.37150 6.93372 2578 ft 179 kts 231°
2026-05-04 18:37 51.36403 6.91794 2358 ft 176 kts 231°
2026-05-04 18:37 51.35670 6.90245 2126 ft 174 kts 230°
2026-05-04 18:37 51.34945 6.88714 1893 ft 171 kts 231°
2026-05-04 18:37 51.34238 6.87222 1667 ft 163 kts 231°
2026-05-04 18:38 51.33579 6.85831 1446 ft 151 kts 229°
2026-05-04 18:38 51.32964 6.84533 1255 ft 143 kts 228°
2026-05-04 18:38 51.32379 6.83302 1043 ft 136 kts 231°
2026-05-04 18:38 51.31796 6.82078 872 ft 141 kts 230°
2026-05-04 18:39 51.31211 6.80832 676 ft 140 kts 230°
2026-05-04 18:39 51.30626 6.79597 457 ft 137 kts 230°
2026-05-04 18:39 51.30042 6.78362 290 ft 141 kts 229°
2026-05-04 18:39 51.29453 6.77139 141 ft 134 kts 229°
2026-05-04 18:40 51.28972 6.76138 128 ft 79 kts 233°
2026-05-04 18:40 51.28759 6.75756 126 ft 32 kts 215°
2026-05-04 18:40 51.28584 6.75682 125 ft 23 kts 172°
2026-05-04 18:40 51.28458 6.75776 125 ft 20 kts 139°
2026-05-04 18:41 51.28404 6.75846 124 ft 3 kts 143°
2026-05-04 18:41 51.28403 6.75847 124 ft 0 kts 143°
2026-05-04 18:42 51.28386 6.75869 125 ft 6 kts 141°
2026-05-04 18:42 51.28334 6.75932 127 ft 11 kts 143°
2026-05-04 18:42 51.28264 6.76011 124 ft 14 kts 146°
2026-05-04 18:42 51.28219 6.76059 128 ft 1 kts 147°
2026-05-04 18:43 51.28218 6.76060 128 ft 0 kts 147°
2026-05-04 18:44 51.28214 6.76064 125 ft 2 kts 148°
2026-05-04 18:45 51.28195 6.76097 128 ft 6 kts 121°
2026-05-04 18:45 51.28193 6.76152 127 ft 6 kts 54°
2026-05-04 18:45 51.28207 6.76230 126 ft 10 kts 111°
2026-05-04 18:45 51.28148 6.76309 126 ft 10 kts 120°
2026-05-04 18:46 51.28115 6.76395 126 ft 7 kts 131°
2026-05-04 18:46 51.28078 6.76434 127 ft 5 kts 147°
2026-05-04 18:46 51.28050 6.76447 128 ft 4 kts 190°
2026-05-04 18:46 51.28022 6.76426 126 ft 4 kts 208°
2026-05-04 18:47 51.28011 6.76416 128 ft 0 kts 208°